| time (UTC) | temp F | wind direction | speed knots | gust knots | rain 1hr in | rain 24hr in | rain mn in | humidity % | barometer mb |
| 20260901103037 | 63 | 157 | 0.0 | 0.0 | 0.00 | 0.00 | 0.00 | 89 | 1021.2 |
| 20260901102037 | 63 | 157 | 0.0 | 0.0 | 0.00 | 0.00 | 0.00 | 89 | 1021.2 |
| 20260901101135 | 62 | 157 | 0.0 | 0.0 | 0.00 | 0.00 | 0.00 | 88 | 1021.0 |
| 20260901101038 | 62 | 157 | 0.0 | 0.0 | 0.00 | 0.00 | 0.00 | 89 | 1020.9 |
| 20260901100036 | 62 | 157 | 0.0 | 0.0 | 0.00 | 0.00 | 0.00 | 89 | 1020.8 |
| 20260901095051 | 62 | 157 | 0.0 | 0.0 | 0.00 | 0.00 | 0.00 | 89 | 1020.7 |
| 20260901093036 | 62 | 157 | 0.0 | 0.0 | 0.00 | 0.00 | 0.00 | 89 | 1021.1 |
| 20260901092935 | 62 | 157 | 0.0 | 0.0 | 0.00 | 0.00 | 0.00 | 88 | 1021.0 |
| 20260901091937 | 62 | 157 | 0.0 | 0.0 | 0.00 | 0.00 | 0.00 | 89 | 1020.9 |
| 20260901090936 | 62 | 157 | 0.0 | 0.0 | 0.00 | 0.00 | 0.00 | 89 | 1020.9 |
| 20260901085953 | 62 | 157 | 0.0 | 0.0 | 0.00 | 0.00 | 0.00 | 89 | 1021.0 |
| 20260901084938 | 62 | 157 | 0.0 | 0.0 | 0.00 | 0.00 | 0.00 | 89 | 1020.9 |
| 20260901083937 | 62 | 157 | 0.0 | 0.0 | 0.00 | 0.00 | 0.00 | 88 | 1020.8 |
| 20260901082938 | 62 | 157 | 0.0 | 0.0 | 0.00 | 0.00 | 0.00 | 89 | 1020.9 |
| 20260901081037 | 63 | 157 | 0.0 | 0.0 | 0.00 | 0.00 | 0.00 | 89 | 1020.8 |
| 20260901075136 | 62 | 157 | 0.0 | 0.0 | 0.00 | 0.00 | 0.00 | 88 | 1020.8 |
| 20260901074137 | 63 | 157 | 0.0 | 0.0 | 0.00 | 0.00 | 0.00 | 89 | 1020.9 |
| 20260901073151 | 63 | 157 | 0.0 | 0.0 | 0.00 | 0.00 | 0.00 | 89 | 1021.1 |
| 20260901072236 | 62 | 157 | 0.0 | 0.0 | 0.00 | 0.00 | 0.00 | 89 | 1021.2 |
| 20260901071239 | 62 | 157 | 0.0 | 0.0 | 0.00 | 0.00 | 0.00 | 88 | 1021.4 |
| 20260901070238 | 62 | 157 | 0.0 | 0.0 | 0.00 | 0.00 | 0.00 | 89 | 1021.6 |
| 20260901064335 | 63 | 157 | 0.0 | 0.0 | 0.00 | 0.00 | 0.00 | 89 | 1021.4 |
| 20260901063335 | 63 | 157 | 0.0 | 0.0 | 0.00 | 0.00 | 0.00 | 89 | 1021.6 |
| 20260901062339 | 62 | 157 | 0.0 | 0.0 | 0.00 | 0.00 | 0.00 | 88 | 1021.8 |
| 20260901061435 | 62 | 157 | 0.0 | 0.0 | 0.00 | 0.00 | 0.00 | 89 | 1021.6 |
| 20260901060438 | 62 | 157 | 0.0 | 0.0 | 0.00 | 0.00 | 0.00 | 89 | 1021.6 |
| 20260901054635 | 62 | 157 | 0.0 | 0.0 | 0.00 | 0.00 | 0.00 | 89 | 1021.6 |
| 20260901053637 | 62 | 157 | 0.0 | 0.0 | 0.00 | 0.00 | 0.00 | 89 | 1021.7 |
| 20260901052735 | 62 | 157 | 0.0 | 0.0 | 0.00 | 0.00 | 0.00 | 88 | 1021.9 |
| 20260901051736 | 62 | 157 | 0.0 | 0.0 | 0.00 | 0.00 | 0.00 | 89 | 1021.7 |
| 20260901050737 | 62 | 157 | 0.0 | 0.0 | 0.00 | 0.00 | 0.00 | 88 | 1021.7 |
| 20260901045736 | 62 | 157 | 0.0 | 0.0 | 0.00 | 0.00 | 0.00 | 89 | 1021.6 |
| 20260901044734 | 62 | 157 | 0.0 | 0.0 | 0.00 | 0.00 | 0.00 | 88 | 1021.7 |
| 20260901043737 | 63 | 157 | 0.0 | 0.0 | 0.00 | 0.00 | 0.00 | 88 | 1021.8 |
| 20260901042738 | 63 | 157 | 0.0 | 0.0 | 0.00 | 0.00 | 0.00 | 87 | 1021.6 |
| 20260901034924 | 64 | 157 | 0.0 | 0.0 | 0.00 | 0.00 | 0.00 | 86 | 1021.7 |
| 20260901033925 | 64 | 157 | 0.0 | 0.0 | 0.00 | 0.00 | 0.00 | 86 | 1021.5 |
| 20260901032923 | 65 | 157 | 0.0 | 0.0 | 0.00 | 0.00 | 0.00 | 85 | 1021.6 |
| 20260901032826 | 65 | 157 | 0.0 | 0.0 | 0.00 | 0.00 | 0.00 | 85 | 1021.8 |
| 20260901031823 | 65 | 157 | 0.0 | 0.0 | 0.00 | 0.00 | 0.00 | 85 | 1021.8 |
| 20260901030839 | 65 | 157 | 0.0 | 0.0 | 0.00 | 0.00 | 0.00 | 84 | 1021.8 |
| 20260901025838 | 65 | 157 | 0.0 | 1.7 | 0.00 | 0.00 | 0.00 | 85 | 1021.9 |
| 20260901024823 | 65 | 157 | 0.0 | 0.0 | 0.00 | 0.00 | 0.00 | 85 | 1022.0 |
| 20260901023841 | 66 | 157 | 0.0 | 0.0 | 0.00 | 0.00 | 0.00 | 85 | 1021.6 |
| 20260901022925 | 65 | 157 | 0.0 | 0.0 | 0.00 | 0.00 | 0.00 | 85 | 1021.7 |
| 20260901021923 | 65 | 225 | 0.0 | 0.0 | 0.00 | 0.00 | 0.00 | 86 | 1021.7 |
| 20260901020924 | 65 | 225 | 0.0 | 0.0 | 0.00 | 0.00 | 0.00 | 85 | 1021.6 |
| 20260901020841 | 65 | 225 | 0.0 | 0.0 | 0.00 | 0.00 | 0.00 | 86 | 1021.7 |
| 20260901015923 | 65 | 225 | 0.0 | 0.0 | 0.00 | 0.00 | 0.00 | 85 | 1021.7 |
| 20260901014924 | 65 | 225 | 0.0 | 0.9 | 0.00 | 0.00 | 0.00 | 85 | 1021.8 |
| 20260901013941 | 65 | 225 | 0.0 | 0.0 | 0.00 | 0.00 | 0.00 | 85 | 1021.6 |
| 20260901012926 | 65 | 225 | 0.0 | 0.0 | 0.00 | 0.00 | 0.00 | 85 | 1021.8 |
| 20260901012827 | 65 | 225 | 0.0 | 0.0 | 0.00 | 0.00 | 0.00 | 84 | 1021.8 |
| 20260901011826 | 65 | 225 | 0.0 | 0.0 | 0.00 | 0.00 | 0.00 | 84 | 1021.8 |
| 20260901011724 | 65 | 225 | 0.0 | 0.0 | 0.00 | 0.00 | 0.00 | 84 | 1021.8 |
| 20260901010725 | 65 | 225 | 0.0 | 0.0 | 0.00 | 0.00 | 0.00 | 83 | 1022.0 |
| 20260901005726 | 66 | 225 | 0.0 | 0.0 | 0.00 | 0.00 | 0.00 | 84 | 1022.0 |
| 20260901004823 | 66 | 225 | 0.0 | 0.0 | 0.00 | 0.00 | 0.00 | 83 | 1021.9 |
| 20260901003922 | 66 | 225 | 0.0 | 0.0 | 0.00 | 0.00 | 0.00 | 82 | 1021.9 |
| 20260901003822 | 66 | 225 | 0.0 | 0.0 | 0.00 | 0.00 | 0.00 | 83 | 1021.8 |
| 20260901002824 | 66 | 225 | 0.0 | 0.0 | 0.00 | 0.00 | 0.00 | 82 | 1021.8 |
| 20260901001822 | 66 | 225 | 0.0 | 0.0 | 0.00 | 0.00 | 0.00 | 81 | 1021.6 |
| 20260901001724 | 66 | 225 | 0.0 | 0.0 | 0.00 | 0.00 | 0.00 | 81 | 1021.7 |
| 20260901001622 | 66 | 225 | 0.0 | 0.0 | 0.00 | 0.00 | 0.00 | 80 | 1021.6 |
| 20260901000638 | 66 | 225 | 0.0 | 0.0 | 0.00 | 0.00 | 0.00 | 80 | 1021.6 |
| 20260831234739 | 67 | 225 | 0.0 | 0.0 | 0.00 | 0.00 | 0.00 | 78 | 1021.5 |
| 20260831232723 | 68 | 225 | 0.0 | 0.0 | 0.00 | 0.00 | 0.00 | 73 | 1021.5 |
| 20260831231624 | 69 | 225 | 0.0 | 0.0 | 0.00 | 0.00 | 0.00 | 71 | 1021.7 |
| 20260831230524 | 70 | 225 | 0.0 | 0.0 | 0.00 | 0.00 | 0.00 | 68 | 1021.8 |
| 20260831225523 | 71 | 225 | 0.0 | 0.0 | 0.00 | 0.00 | 0.00 | 67 | 1022.0 |
| 20260831224523 | 73 | 225 | 0.0 | 0.0 | 0.00 | 0.00 | 0.00 | 64 | 1022.0 |
| 20260831223524 | 74 | 225 | 0.0 | 0.0 | 0.00 | 0.00 | 0.00 | 62 | 1021.9 |
| 20260831222525 | 74 | 225 | 0.0 | 0.0 | 0.00 | 0.00 | 0.00 | 60 | 1022.0 |
| 20260831221524 | 74 | 157 | 0.9 | 1.7 | 0.00 | 0.00 | 0.00 | 58 | 1021.8 |
| 20260831220526 | 75 | 247 | 0.9 | 3.5 | 0.00 | 0.00 | 0.00 | 56 | 1021.6 |
| 20260831215524 | 76 | 247 | 2.6 | 4.3 | 0.00 | 0.00 | 0.00 | 56 | 1021.5 |
| 20260831214523 | 75 | 225 | 1.7 | 3.5 | 0.00 | 0.00 | 0.00 | 55 | 1021.6 |
| 20260831213524 | 76 | 225 | 1.7 | 2.6 | 0.00 | 0.00 | 0.00 | 54 | 1021.5 |
| 20260831211522 | 76 | 202 | 1.7 | 3.5 | 0.00 | 0.00 | 0.00 | 54 | 1021.4 |
| 20260831210525 | 76 | 314 | 0.0 | 2.6 | 0.00 | 0.00 | 0.00 | 54 | 1021.6 |
| 20260831205522 | 75 | 225 | 0.9 | 2.6 | 0.00 | 0.00 | 0.00 | 52 | 1021.6 |
| 20260831204522 | 76 | 270 | 1.7 | 3.5 | 0.00 | 0.00 | 0.00 | 51 | 1021.8 |
| 20260831203621 | 76 | 216 | 0.9 | 4.3 | 0.00 | 0.00 | 0.00 | 52 | 1021.7 |
| 20260831201624 | 76 | 262 | 2.6 | 6.1 | 0.00 | 0.00 | 0.00 | 52 | 1021.7 |
| 20260831200624 | 76 | 233 | 3.5 | 5.2 | 0.00 | 0.00 | 0.00 | 51 | 1021.7 |
| 20260831195722 | 76 | 294 | 3.5 | 5.2 | 0.00 | 0.00 | 0.00 | 52 | 1021.7 |
| 20260831195639 | 76 | 313 | 0.9 | 1.7 | 0.00 | 0.00 | 0.00 | 51 | 1021.8 |
| 20260831194624 | 76 | 247 | 1.7 | 3.5 | 0.00 | 0.00 | 0.00 | 49 | 1021.8 |
| 20260831193622 | 77 | 292 | 3.5 | 7.8 | 0.00 | 0.00 | 0.00 | 47 | 1021.8 |
| 20260831193524 | 77 | 328 | 2.6 | 8.7 | 0.00 | 0.00 | 0.00 | 47 | 1021.9 |
| 20260831192523 | 78 | 266 | 2.6 | 4.3 | 0.00 | 0.00 | 0.00 | 44 | 1022.1 |
| 20260831191622 | 79 | 160 | 0.0 | 0.9 | 0.00 | 0.00 | 0.00 | 44 | 1022.1 |
| 20260831190722 | 77 | 217 | 2.6 | 4.3 | 0.00 | 0.00 | 0.00 | 43 | 1022.2 |
| 20260831185723 | 77 | 225 | 1.7 | 4.3 | 0.00 | 0.00 | 0.00 | 44 | 1022.2 |
| 20260831184723 | 78 | 217 | 2.6 | 4.3 | 0.00 | 0.00 | 0.00 | 42 | 1022.4 |
| 20260831184624 | 78 | 214 | 2.6 | 3.5 | 0.00 | 0.00 | 0.00 | 43 | 1022.4 |
| 20260831183640 | 77 | 314 | 0.0 | 1.7 | 0.00 | 0.00 | 0.00 | 45 | 1022.6 |
| 20260831181723 | 75 | 251 | 1.7 | 4.3 | 0.00 | 0.00 | 0.00 | 46 | 1022.9 |
| 20260831180725 | 75 | 297 | 0.9 | 1.7 | 0.00 | 0.00 | 0.00 | 44 | 1022.8 |
| 20260831175722 | 75 | 279 | 2.6 | 4.3 | 0.00 | 0.00 | 0.00 | 47 | 1022.8 |
| 20260831174724 | 76 | 288 | 0.0 | 1.7 | 0.00 | 0.00 | 0.00 | 48 | 1023.0 |
| 20260831173723 | 76 | 264 | 0.9 | 3.5 | 0.00 | 0.00 | 0.00 | 47 | 1022.8 |
| 20260831172740 | 76 | 24 | 0.0 | 2.6 | 0.00 | 0.00 | 0.00 | 49 | 1023.0 |
| 20260831171723 | 76 | 270 | 1.7 | 3.5 | 0.00 | 0.00 | 0.00 | 46 | 1022.9 |
| 20260831170723 | 75 | 247 | 0.0 | 0.0 | 0.00 | 0.00 | 0.00 | 47 | 1023.2 |
| 20260831162938 | 74 | 146 | 2.6 | 4.3 | 0.00 | 0.00 | 0.00 | 53 | 1023.5 |
| 20260831161923 | 74 | 163 | 2.6 | 4.3 | 0.00 | 0.00 | 0.00 | 53 | 1023.5 |
| 20260831160923 | 75 | 157 | 0.0 | 0.0 | 0.00 | 0.00 | 0.00 | 54 | 1023.5 |
| 20260831155924 | 73 | 225 | 0.0 | 0.0 | 0.00 | 0.00 | 0.00 | 54 | 1023.9 |
| 20260831155022 | 73 | 157 | 0.0 | 0.9 | 0.00 | 0.00 | 0.00 | 55 | 1023.8 |
| 20260831154024 | 73 | 157 | 0.0 | 0.0 | 0.00 | 0.00 | 0.00 | 55 | 1023.8 |
| 20260831153021 | 74 | 157 | 1.7 | 2.6 | 0.00 | 0.00 | 0.00 | 56 | 1023.8 |
| 20260831152923 | 73 | 157 | 0.0 | 0.0 | 0.00 | 0.00 | 0.00 | 55 | 1023.7 |
| 20260831151941 | 72 | 157 | 0.0 | 0.0 | 0.00 | 0.00 | 0.00 | 57 | 1023.7 |
| 20260831151024 | 72 | 247 | 0.9 | 2.6 | 0.00 | 0.00 | 0.00 | 57 | 1023.8 |
| 20260831145925 | 72 | 231 | 0.9 | 3.5 | 0.00 | 0.00 | 0.00 | 59 | 1023.8 |
| 20260831144023 | 70 | 157 | 0.0 | 0.0 | 0.00 | 0.00 | 0.00 | 61 | 1024.1 |
| 20260831143025 | 70 | 157 | 0.0 | 0.0 | 0.00 | 0.00 | 0.00 | 65 | 1024.3 |
| 20260831142024 | 69 | 247 | 1.7 | 2.6 | 0.00 | 0.00 | 0.00 | 67 | 1024.3 |
| 20260831141924 | 69 | 238 | 0.9 | 2.6 | 0.00 | 0.00 | 0.00 | 68 | 1024.3 |
| 20260831141824 | 69 | 190 | 1.7 | 2.6 | 0.00 | 0.00 | 0.00 | 69 | 1024.3 |
| 20260831140821 | 67 | 337 | 0.0 | 0.0 | 0.00 | 0.00 | 0.00 | 73 | 1024.4 |
| 20260831140738 | 67 | 320 | 0.0 | 0.0 | 0.00 | 0.00 | 0.00 | 74 | 1024.5 |
| 20260831135723 | 66 | 225 | 0.0 | 0.0 | 0.00 | 0.00 | 0.00 | 78 | 1024.4 |
| 20260831135624 | 65 | 225 | 0.0 | 0.9 | 0.00 | 0.00 | 0.00 | 79 | 1024.5 |
| 20260831134623 | 64 | 157 | 1.7 | 1.7 | 0.00 | 0.00 | 0.00 | 82 | 1024.6 |
| 20260831134522 | 63 | 157 | 2.6 | 2.6 | 0.00 | 0.00 | 0.00 | 83 | 1024.6 |
| 20260831132621 | 62 | 157 | 1.7 | 2.6 | 0.00 | 0.00 | 0.00 | 87 | 1024.5 |
| 20260831131622 | 62 | 157 | 0.0 | 0.9 | 0.00 | 0.00 | 0.00 | 88 | 1024.5 |
| 20260831130623 | 61 | 157 | 0.9 | 2.6 | 0.00 | 0.00 | 0.00 | 89 | 1024.5 |
| 20260831125722 | 61 | 157 | 1.7 | 2.6 | 0.00 | 0.00 | 0.00 | 89 | 1024.6 |
| 20260831124721 | 60 | 206 | 0.9 | 1.7 | 0.00 | 0.00 | 0.00 | 89 | 1024.6 |
| 20260831123722 | 59 | 247 | 0.0 | 0.0 | 0.00 | 0.00 | 0.00 | 87 | 1024.5 |
| 20260831121721 | 57 | 135 | 1.7 | 2.6 | 0.00 | 0.00 | 0.00 | 86 | 1024.5 |
| 20260831120722 | 56 | 135 | 0.0 | 0.9 | 0.00 | 0.00 | 0.00 | 85 | 1024.4 |
| 20260831120623 | 56 | 135 | 0.9 | 1.7 | 0.00 | 0.00 | 0.00 | 85 | 1024.4 |
| 20260831120524 | 56 | 135 | 1.7 | 1.7 | 0.00 | 0.00 | 0.00 | 85 | 1024.4 |
| 20260831115622 | 55 | 135 | 0.0 | 0.0 | 0.00 | 0.00 | 0.00 | 85 | 1024.2 |
| 20260831115524 | 55 | 135 | 0.0 | 0.0 | 0.00 | 0.00 | 0.00 | 85 | 1024.2 |
| 20260831114440 | 54 | 135 | 0.0 | 0.0 | 0.00 | 0.00 | 0.00 | 85 | 1024.2 |
| 20260831113522 | 54 | 135 | 0.9 | 1.7 | 0.00 | 0.00 | 0.00 | 85 | 1024.2 |
| 20260831112523 | 53 | 315 | 0.0 | 0.0 | 0.00 | 0.00 | 0.00 | 86 | 1024.0 |
| 20260831111621 | 53 | 315 | 0.0 | 0.0 | 0.00 | 0.00 | 0.00 | 86 | 1023.9 |
| 20260831111523 | 53 | 315 | 0.0 | 0.0 | 0.00 | 0.00 | 0.00 | 86 | 1023.9 |
| 20260831110622 | 53 | 315 | 0.0 | 0.0 | 0.00 | 0.00 | 0.00 | 87 | 1023.9 |
| 20260831105623 | 53 | 315 | 0.0 | 0.0 | 0.00 | 0.00 | 0.00 | 87 | 1023.9 |
| 20260831104622 | 53 | 315 | 0.0 | 0.0 | 0.00 | 0.00 | 0.00 | 86 | 1023.9 |